LOT010 EPKT-EPGD

Flight info

Callsign LOT010
Flight time 0h 54m
Altitude 30000
Route NAVUR N744 OVBOR N133 GRUDA Z95 OSLOG
Aircraft A320/M-KR/GDN

Departure

Time 2026-04-27 18:28
Airport Katowice Wojciech Korfanty International Airport (EPKT)

Arrival

Time 2026-04-27 19:22
Airport Gdańsk Lech Wałęsa Airport (EPGD)
Time Latitude Longitude Altitude Speed Heading
2026-04-27 18:09 50.47180 19.07213 985 ft 0 kts 179°
2026-04-27 18:20 50.47189 19.07213 996 ft 4 kts 179°
2026-04-27 18:20 50.47216 19.07212 995 ft 4 kts 157°
2026-04-27 18:20 50.47235 19.07184 995 ft 4 kts 99°
2026-04-27 18:21 50.47236 19.07176 993 ft 0 kts 86°
2026-04-27 18:23 50.47180 19.07213 985 ft 0 kts 179°
2026-04-27 18:23 50.47197 19.07207 998 ft 4 kts 157°
2026-04-27 18:23 50.47221 19.07191 998 ft 4 kts 135°
2026-04-27 18:23 50.47232 19.07162 993 ft 0 kts 88°
2026-04-27 18:24 50.47231 19.07181 996 ft 7 kts 90°
2026-04-27 18:24 50.47239 19.07290 991 ft 13 kts 84°
2026-04-27 18:24 50.47241 19.07452 988 ft 16 kts 96°
2026-04-27 18:24 50.47233 19.07643 995 ft 19 kts 89°
2026-04-27 18:25 50.47234 19.07861 990 ft 21 kts 90°
2026-04-27 18:25 50.47234 19.08101 997 ft 20 kts 90°
2026-04-27 18:25 50.47233 19.08332 997 ft 22 kts 90°
2026-04-27 18:25 50.47233 19.08576 997 ft 23 kts 90°
2026-04-27 18:26 50.47234 19.08839 997 ft 25 kts 90°
2026-04-27 18:26 50.47231 19.09128 1000 ft 27 kts 91°
2026-04-27 18:26 50.47238 19.09355 999 ft 14 kts 53°
2026-04-27 18:26 50.47328 19.09393 992 ft 14 kts
2026-04-27 18:27 50.47436 19.09394 994 ft 16 kts
2026-04-27 18:27 50.47556 19.09390 992 ft 18 kts 346°
2026-04-27 18:27 50.47592 19.09217 995 ft 41 kts 271°
2026-04-27 18:27 50.47599 19.08285 991 ft 125 kts 271°
2026-04-27 18:28 50.47599 19.06586 1080 ft 177 kts 270°
2026-04-27 18:28 50.47596 19.04626 1926 ft 184 kts 272°
2026-04-27 18:28 50.47597 19.02527 2847 ft 198 kts 272°
2026-04-27 18:28 50.47597 19.00426 4182 ft 188 kts 272°
2026-04-27 18:29 50.47599 18.98374 5330 ft 189 kts 272°
2026-04-27 18:29 50.47599 18.96299 6437 ft 189 kts 272°
2026-04-27 18:29 50.47601 18.94234 7483 ft 190 kts 272°
2026-04-27 18:29 50.47602 18.92152 8460 ft 192 kts 273°
2026-04-27 18:30 50.47602 18.90036 9424 ft 195 kts 274°
2026-04-27 18:30 50.47602 18.87892 10383 ft 198 kts 274°
2026-04-27 18:30 50.47601 18.85722 11267 ft 199 kts 274°
2026-04-27 18:30 50.47717 18.83565 12066 ft 199 kts 292°
2026-04-27 18:31 50.48506 18.81843 12874 ft 198 kts 325°
2026-04-27 18:31 50.49801 18.81190 13677 ft 205 kts 353°
2026-04-27 18:31 50.51245 18.81172 14437 ft 209 kts 356°
2026-04-27 18:31 50.52726 18.81255 15165 ft 211 kts 357°
2026-04-27 18:32 50.54194 18.81338 15866 ft 212 kts 356°
2026-04-27 18:32 50.55658 18.81395 16540 ft 214 kts 355°
2026-04-27 18:32 50.57175 18.81428 17242 ft 216 kts 355°
2026-04-27 18:32 50.58679 18.81446 17936 ft 217 kts 354°
2026-04-27 18:33 50.60180 18.81457 18600 ft 219 kts 354°
2026-04-27 18:33 50.61710 18.81465 19175 ft 221 kts 354°
2026-04-27 18:33 50.63254 18.81472 19738 ft 223 kts 354°
2026-04-27 18:33 50.64805 18.81479 20318 ft 224 kts 353°
2026-04-27 18:34 50.66377 18.81488 20869 ft 226 kts 353°
2026-04-27 18:34 50.67955 18.81497 21414 ft 228 kts 353°
2026-04-27 18:34 50.69553 18.81507 21953 ft 230 kts 353°
2026-04-27 18:34 50.71162 18.81517 22480 ft 232 kts 353°
2026-04-27 18:35 50.72786 18.81528 22950 ft 236 kts 353°
2026-04-27 18:35 50.74453 18.81533 23340 ft 244 kts 353°
2026-04-27 18:35 50.76170 18.81542 23890 ft 246 kts 353°
2026-04-27 18:35 50.77878 18.81557 24412 ft 245 kts 353°
2026-04-27 18:36 50.79588 18.81572 24876 ft 246 kts 353°
2026-04-27 18:36 50.81305 18.81587 25361 ft 247 kts 353°
2026-04-27 18:36 50.83029 18.81603 25805 ft 249 kts 353°
2026-04-27 18:36 50.84787 18.81612 26080 ft 257 kts 353°
2026-04-27 18:37 50.86597 18.81621 26342 ft 265 kts 353°
2026-04-27 18:37 50.88472 18.81631 26596 ft 274 kts 353°
2026-04-27 18:37 50.90409 18.81644 26868 ft 282 kts 353°
2026-04-27 18:37 50.92402 18.81658 27138 ft 291 kts 353°
2026-04-27 18:38 50.94452 18.81674 27406 ft 299 kts 353°
2026-04-27 18:38 50.96558 18.81691 27673 ft 307 kts 353°
2026-04-27 18:38 50.98724 18.81710 27951 ft 315 kts 353°
2026-04-27 18:38 51.00947 18.81729 28262 ft 323 kts 353°
2026-04-27 18:39 51.03217 18.81749 28533 ft 330 kts 353°
2026-04-27 18:39 51.05538 18.81769 28816 ft 337 kts 353°
2026-04-27 18:39 51.07906 18.81790 29100 ft 344 kts 353°
2026-04-27 18:39 51.10294 18.81811 29381 ft 350 kts 354°
2026-04-27 18:40 51.12781 18.81833 29672 ft 357 kts 354°
2026-04-27 18:40 51.15289 18.81855 29957 ft 363 kts 354°
2026-04-27 18:40 51.17832 18.81877 30201 ft 370 kts 354°
2026-04-27 18:40 51.20413 18.81894 30218 ft 382 kts 354°
2026-04-27 18:41 51.23109 18.81912 30213 ft 393 kts 354°
2026-04-27 18:41 51.25922 18.81931 30214 ft 405 kts 354°
2026-04-27 18:41 51.31655 18.81972 30219 ft 424 kts 354°
2026-04-27 18:42 51.35648 18.82000 30216 ft 433 kts 354°
2026-04-27 18:42 51.43626 18.82072 30216 ft 411 kts 354°
2026-04-27 18:43 51.46414 18.82109 30215 ft 391 kts 354°
2026-04-27 18:43 51.49073 18.82140 30244 ft 373 kts 354°
2026-04-27 18:43 51.51611 18.82163 30211 ft 356 kts 354°
2026-04-27 18:43 51.54033 18.82183 30211 ft 339 kts 353°
2026-04-27 18:44 51.56330 18.82200 30211 ft 322 kts 353°
2026-04-27 18:44 51.58513 18.82217 30216 ft 306 kts 353°
2026-04-27 18:44 51.59930 18.82228 30216 ft 296 kts 352°
2026-04-27 18:44 51.61994 18.82230 30221 ft 302 kts 352°
2026-04-27 18:45 51.66238 18.82224 30216 ft 307 kts 352°
2026-04-27 18:45 51.70517 18.82250 30216 ft 305 kts 352°
2026-04-27 18:46 51.74771 18.82277 30213 ft 306 kts 353°
2026-04-27 18:46 51.79037 18.82303 30213 ft 306 kts 353°
2026-04-27 18:47 51.83266 18.82333 30214 ft 306 kts 352°
2026-04-27 18:47 51.87554 18.82365 30212 ft 306 kts 352°
2026-04-27 18:48 51.91784 18.82401 30216 ft 306 kts 352°
2026-04-27 18:48 51.96046 18.82434 30210 ft 306 kts 352°
2026-04-27 18:49 52.00304 18.82466 30210 ft 306 kts 352°
2026-04-27 18:49 52.04562 18.82497 30215 ft 306 kts 352°
2026-04-27 18:50 52.08810 18.82529 30212 ft 306 kts 352°
2026-04-27 18:50 52.13070 18.82559 30208 ft 306 kts 352°
2026-04-27 18:51 52.17325 18.82590 30212 ft 306 kts 352°
2026-04-27 18:51 52.21574 18.82623 30212 ft 306 kts 352°
2026-04-27 18:52 52.25834 18.82654 30213 ft 306 kts 352°
2026-04-27 18:53 52.32253 18.82704 30213 ft 306 kts 352°
2026-04-27 18:53 52.36495 18.82739 30210 ft 306 kts 352°
2026-04-27 18:54 52.40758 18.82773 30208 ft 306 kts 352°
2026-04-27 18:54 52.45017 18.82808 30207 ft 306 kts 352°
2026-04-27 18:55 52.49274 18.82842 30229 ft 307 kts 352°
2026-04-27 18:55 52.53552 18.82871 30192 ft 308 kts 353°
2026-04-27 18:56 52.57828 18.82905 30194 ft 308 kts 353°
2026-04-27 18:56 52.62117 18.82941 30205 ft 307 kts 353°
2026-04-27 18:57 52.66396 18.82979 30203 ft 308 kts 352°
2026-04-27 18:57 52.70678 18.83013 30204 ft 308 kts 352°
2026-04-27 18:58 52.74956 18.83045 30199 ft 309 kts 353°
2026-04-27 18:58 52.79287 18.83074 30196 ft 311 kts 353°
2026-04-27 18:59 52.83603 18.83112 30195 ft 310 kts 353°
2026-04-27 18:59 52.87905 18.83151 30190 ft 309 kts 353°
2026-04-27 19:00 52.92199 18.83188 30184 ft 308 kts 353°
2026-04-27 19:00 52.96560 18.83214 30203 ft 325 kts 353°
2026-04-27 19:00 52.98880 18.83217 30006 ft 343 kts 353°
2026-04-27 19:01 53.01317 18.83221 29512 ft 355 kts 354°
2026-04-27 19:01 53.03802 18.83235 28715 ft 359 kts 354°
2026-04-27 19:01 53.06316 18.83257 27899 ft 363 kts 354°
2026-04-27 19:01 53.08851 18.83280 27105 ft 366 kts 355°
2026-04-27 19:02 53.11402 18.83304 26455 ft 366 kts 355°
2026-04-27 19:02 53.13943 18.83328 25853 ft 364 kts 355°
2026-04-27 19:02 53.16471 18.83352 25260 ft 362 kts 355°
2026-04-27 19:02 53.18944 18.83375 24690 ft 361 kts 355°
2026-04-27 19:03 53.21450 18.83398 24121 ft 359 kts 355°
2026-04-27 19:03 53.23943 18.83420 23510 ft 357 kts 355°
2026-04-27 19:03 53.26415 18.83442 22887 ft 355 kts 355°
2026-04-27 19:03 53.28086 18.83456 22445 ft 354 kts 355°
2026-04-27 19:04 53.31333 18.83485 21708 ft 349 kts 355°
2026-04-27 19:04 53.33746 18.83508 21203 ft 345 kts 355°
2026-04-27 19:04 53.36127 18.83530 20693 ft 341 kts 355°
2026-04-27 19:04 53.38490 18.83552 20165 ft 337 kts 356°
2026-04-27 19:05 53.40826 18.83573 19671 ft 334 kts 356°
2026-04-27 19:05 53.43142 18.83593 19188 ft 331 kts 356°
2026-04-27 19:05 53.45435 18.83612 18712 ft 329 kts 356°
2026-04-27 19:05 53.47713 18.83632 18197 ft 326 kts 356°
2026-04-27 19:06 53.49975 18.83652 17656 ft 324 kts 356°
2026-04-27 19:06 53.52219 18.83673 17147 ft 321 kts 356°
2026-04-27 19:06 53.54442 18.83695 16624 ft 319 kts 356°
2026-04-27 19:06 53.56650 18.83718 16113 ft 316 kts 356°
2026-04-27 19:07 53.58845 18.83739 15607 ft 314 kts 356°
2026-04-27 19:07 53.61016 18.83760 15110 ft 311 kts 356°
2026-04-27 19:07 53.63179 18.83780 14612 ft 309 kts 356°
2026-04-27 19:07 53.65320 18.83799 14131 ft 307 kts 356°
2026-04-27 19:08 53.67447 18.83818 13612 ft 305 kts 356°
2026-04-27 19:08 53.69564 18.83837 13077 ft 303 kts 356°
2026-04-27 19:08 53.71659 18.83854 12549 ft 301 kts 356°
2026-04-27 19:08 53.73745 18.83870 12030 ft 299 kts 356°
2026-04-27 19:09 53.75818 18.83887 11526 ft 297 kts 356°
2026-04-27 19:09 53.77882 18.83903 11032 ft 296 kts 356°
2026-04-27 19:09 53.79929 18.83919 10544 ft 294 kts 356°
2026-04-27 19:09 53.81977 18.83934 10040 ft 293 kts 357°
2026-04-27 19:10 53.84000 18.83949 9498 ft 291 kts 357°
2026-04-27 19:10 53.86025 18.83967 8953 ft 290 kts 357°
2026-04-27 19:10 53.88042 18.83990 8434 ft 290 kts 356°
2026-04-27 19:10 53.89377 18.84005 8089 ft 289 kts 356°
2026-04-27 19:11 53.92061 18.84037 7401 ft 288 kts 356°
2026-04-27 19:11 53.94044 18.84060 6906 ft 288 kts 356°
2026-04-27 19:11 53.96052 18.84084 6371 ft 282 kts 356°
2026-04-27 19:11 53.97991 18.84109 5838 ft 274 kts 356°
2026-04-27 19:12 53.99847 18.84133 5330 ft 267 kts 356°
2026-04-27 19:12 54.01665 18.84158 5029 ft 254 kts 356°
2026-04-27 19:12 54.03357 18.84182 4959 ft 232 kts 356°
2026-04-27 19:12 54.04894 18.84202 4956 ft 211 kts 355°
2026-04-27 19:13 54.06381 18.84212 4964 ft 216 kts 355°
2026-04-27 19:13 54.07881 18.84217 4959 ft 214 kts 355°
2026-04-27 19:13 54.09369 18.84223 4964 ft 214 kts 355°
2026-04-27 19:13 54.10858 18.84230 4927 ft 215 kts 355°
2026-04-27 19:14 54.12360 18.84235 4648 ft 217 kts 355°
2026-04-27 19:14 54.13877 18.84238 4231 ft 221 kts 355°
2026-04-27 19:14 54.15413 18.84239 3999 ft 216 kts 356°
2026-04-27 19:14 54.16855 18.84249 3965 ft 210 kts 356°
2026-04-27 19:15 54.18341 18.84255 3968 ft 214 kts 356°
2026-04-27 19:15 54.19814 18.84267 3959 ft 211 kts 356°
2026-04-27 19:15 54.21286 18.84279 3967 ft 212 kts 356°
2026-04-27 19:15 54.22760 18.84294 3970 ft 211 kts 356°
2026-04-27 19:16 54.24234 18.84306 3976 ft 212 kts 356°
2026-04-27 19:16 54.25212 18.84312 3973 ft 213 kts 356°
2026-04-27 19:16 54.27181 18.84146 3972 ft 209 kts 340°
2026-04-27 19:16 54.28397 18.82874 3972 ft 209 kts 314°
2026-04-27 19:17 54.29243 18.80828 3967 ft 209 kts 300°
2026-04-27 19:17 54.29851 18.78639 3969 ft 198 kts 295°
2026-04-27 19:17 54.30359 18.76549 3988 ft 180 kts 295°
2026-04-27 19:17 54.30827 18.74654 3823 ft 168 kts 296°
2026-04-27 19:18 54.31273 18.72855 3594 ft 161 kts 297°
2026-04-27 19:18 54.31700 18.71131 3381 ft 155 kts 297°
2026-04-27 19:18 54.32116 18.69451 3170 ft 150 kts 298°
2026-04-27 19:18 54.32515 18.67827 2963 ft 146 kts 298°
2026-04-27 19:19 54.32922 18.66194 2750 ft 150 kts 299°
2026-04-27 19:19 54.33327 18.64550 2539 ft 150 kts 300°
2026-04-27 19:19 54.33742 18.62882 2331 ft 152 kts 299°
2026-04-27 19:19 54.34147 18.61232 2123 ft 152 kts 299°
2026-04-27 19:20 54.34557 18.59572 1911 ft 151 kts 298°
2026-04-27 19:20 54.34965 18.57922 1706 ft 148 kts 298°
2026-04-27 19:20 54.35367 18.56298 1483 ft 149 kts 300°
2026-04-27 19:20 54.35763 18.54690 1263 ft 148 kts 300°
2026-04-27 19:21 54.36163 18.53073 1055 ft 147 kts 300°
2026-04-27 19:21 54.36567 18.51468 852 ft 146 kts 299°
2026-04-27 19:21 54.36953 18.49890 616 ft 139 kts 296°
2026-04-27 19:21 54.37318 18.48441 479 ft 123 kts 295°
2026-04-27 19:22 54.37596 18.47257 457 ft 69 kts 293°
2026-04-27 19:22 54.37764 18.46825 451 ft 33 kts 315°
2026-04-27 19:22 54.37810 18.46756 451 ft 3 kts 322°
2026-04-27 19:22 54.37835 18.46723 451 ft 6 kts 322°
2026-04-27 19:23 54.37874 18.46671 451 ft 8 kts 322°
2026-04-27 19:23 54.37923 18.46606 453 ft 10 kts 323°
2026-04-27 19:23 54.37992 18.46587 453 ft 11 kts 14°
2026-04-27 19:23 54.38068 18.46594 451 ft 9 kts 320°
2026-04-27 19:24 54.38092 18.46538 452 ft 7 kts 334°
2026-04-27 19:24 54.38134 18.46562 451 ft 0 kts 23°